Regional Weather Roundup
Issued by NWS Little Rock, AR

Home | Current Version | Previous Version | Graphics & Text | Print | Product List | Glossary On
Versions: 1 2 3 4 5 6 7 8 9 10 11 12 13 14 15 16 17 18 19 20 21 22 23 24 25 26 27 28 29 30 31 32 33 34 35 36 37 38 39 40 41 42 43 44 45 46 47 48 49 50
000
ASUS44 KLZK 010005
RWRLZK

WEATHER ROUNDUP FOR ARKANSAS
NATIONAL WEATHER SERVICE LITTLE ROCK AR
700 PM CDT SUN AUG 31 2014

NOTE: "FAIR" INDICATES FEW OR NO CLOUDS BELOW 12,000 FEET WITH NO
SIGNIFICANT WEATHER AND/OR OBSTRUCTIONS TO VISIBILITY.

ARZ001-003-010-029-010100-
NORTHWEST ARKANSAS

CITY           SKY/WX    TMP DP  RH WIND       PRES   REMARKS
FAYETTEVILLE   CLEAR     84  68  58 S9        29.91F HX  87
6HR MIN TEMP:  84; 6HR MAX TEMP:  89;

FORT SMITH     CLEAR     89  70  53 S10G20    29.87F HX  94
6HR MIN TEMP:  88; 6HR MAX TEMP:  94;

HARRISON       CLEAR     82  70  66 S10       29.94F HX  86
6HR MIN TEMP:  82; 6HR MAX TEMP:  89;

BENTONVILLE    CLEAR     86  66  51 S13G21    29.91F HX  88
6HR MIN TEMP:  86; 6HR MAX TEMP:  91;

ROGERS         PTCLDY    85  67  54 S14G21    29.91F HX  87
6HR MIN TEMP:  85; 6HR MAX TEMP:  92;

HIGHFILL       CLEAR     86  66  51 S16       29.89F HX  88
6HR MIN TEMP:  86; 6HR MAX TEMP:  92;

SPRINGDALE     PTCLDY    86  68  54 S14G21    29.93F HX  89
$$

ARZ004-005-016-010100-
NORTH CENTRAL ARKANSAS

CITY           SKY/WX    TMP DP  RH WIND       PRES   REMARKS
BATESVILLE     PTCLDY    84  72  65 S5        29.95F HX  89
6HR MIN TEMP:  84; 6HR MAX TEMP:  90;

FLIPPIN        CLEAR     84  66  54 S7        29.92F HX  86
6HR MIN TEMP:  84; 6HR MAX TEMP:  90;

MTN HOME       CLEAR     84  70  62 S12       29.92F HX  88
6HR MIN TEMP:  84; 6HR MAX TEMP:  92;

$$

ARZ040-041-010100-
WEST CENTRAL ARKANSAS

CITY           SKY/WX    TMP DP  RH WIND       PRES   REMARKS
MENA           CLEAR     86  73  66 SE3       29.95F HX  93
MOUNT IDA      CLEAR     84  73  69 VRB5      29.93F HX  90
6HR MIN TEMP:  83; 6HR MAX TEMP:  87;

$$

ARZ009-017-025-026-028-010100-
NORTHEAST ARKANSAS

CITY           SKY/WX    TMP DP  RH WIND       PRES   REMARKS
CORNING        LGT RAIN  84  73  70 S9        29.94S HX  91
JONESBORO      CLEAR     84  72  67 SW15      29.96S HX  89
6HR MIN TEMP:  84; 6HR MAX TEMP:  89;

NEWPORT        PTCLDY    84  74  72 S10       29.96F HX  91
6HR MIN TEMP:  84; 6HR MAX TEMP:  91;

WALNUT RIDGE   CLEAR     84  70  61 S14G22    29.93S HX  88
6HR MIN TEMP:  84; 6HR MAX TEMP:  88;

BLYTHEVILLE    CLEAR     82  75  79 S8        29.97F HX  89
6HR MIN TEMP:  82; 6HR MAX TEMP:  88;

$$

ARZ022-023-033-042-044-010100-
CENTRAL ARKANSAS

CITY           SKY/WX    TMP DP  RH WIND       PRES   REMARKS
LITTLE ROCK    PTCLDY    84  72  67 S8        29.96F HX  89
6HR MIN TEMP:  82; 6HR MAX TEMP:  87; 6HR PCP: TRACE;

N LITTLE ROCK  PTCLDY    83  74  73 S9        29.96F HX  90
6HR MIN TEMP:  81; 6HR MAX TEMP:  86;

JACKSONVILLE   CLEAR     85  73  68 S6        29.96F HX  91
6HR MIN TEMP:  82; 6HR MAX TEMP:  88;

SEARCY         CLEAR     83  74  74 MISG      29.97F HX  89
6HR MIN TEMP:  83; 6HR MAX TEMP:  88;

HOT SPRINGS    CLEAR     85  72  65 SE9       29.95F HX  91
6HR MIN TEMP:  79; 6HR MAX TEMP:  87; 6HR PCP: TRACE;

RUSSELLVILLE   CLEAR     85  72  65 VRB6      29.93S HX  91
6HR MIN TEMP:  84; 6HR MAX TEMP:  90;

CLINTON        FAIR      82  75  78 S5        29.95F HX  89
$$

ARZ036-010100-
EAST ARKANSAS

CITY           SKY/WX    TMP DP  RH WIND       PRES   REMARKS
WEST MEMPHIS   PTCLDY    82  75  79 SW5       29.98S HX  89
6HR MIN TEMP:  82; 6HR MAX TEMP:  86;

$$

ARZ050-053-066-070-073-010100-
SOUTHWEST ARKANSAS

CITY           SKY/WX    TMP DP  RH WIND       PRES   REMARKS
ARKADELPHIA    FAIR      86  75  69 SE5       29.96S HX  95
6HR MIN TEMP:  80; 6HR MAX TEMP:  90; 6HR PCP: TRACE;

CAMDEN         PTCLDY    81  72  74 S7        29.97S
TEXARKANA      CLEAR     88  73  61 S7        29.93S HX  95
6HR MIN TEMP:  86; 6HR MAX TEMP:  93;

EL DORADO      PTCLDY    80  74  81 S8        29.98F HX  85
6HR MIN TEMP:  77; 6HR MAX TEMP:  89; 6HR PCP:  0.01;

DE QUEEN       CLEAR     88  71  57 SE3       29.89F HX  94
6HR MIN TEMP:  86; 6HR MAX TEMP:  91;

$$

ARZ056-057-069-010100-
SOUTHEAST ARKANSAS

CITY           SKY/WX    TMP DP  RH WIND       PRES   REMARKS
PINE BLUFF     LGT RAIN  80  72  76 S16       29.99R
6HR MIN TEMP:  79; 6HR MAX TEMP:  87; 6HR PCP: TRACE;

STUTTGART      PTCLDY    84  72  65 S7        29.99F HX  89
6HR MIN TEMP:  81; 6HR MAX TEMP:  88;

MONTICELLO     CLOUDY    77  73  87 W5        30.01S
6HR MIN TEMP:  77; 6HR MAX TEMP:  89; 6HR PCP:  0.02;


$$





USA.gov is the U.S. government's official web portal to all federal, state and local government web resources and services.